Location: Caltech
(34.1382°N, 118.1253°W)
Time: 12:11:57
(UTC-07:00)

Sapphire - Visible Passes

Search period start: 26 March 2015 00:00
Search period end: 05 April 2015 00:00
Orbit: 785 x 797 km, 67.1° (Epoch: 26 March)

Date Brightness Start Highest point End Pass type
(mag) Time Alt. Az. Time Alt. Az. Time Alt. Az.
01 Apr ? 22:39:50 10° N 22:39:57 10° N 22:39:57 10° N visible
02 Apr ? 22:10:01 10° NNE 22:10:16 11° NNE 22:10:16 11° NNE visible
03 Apr ? 23:21:00 10° NNW 23:21:22 12° NNW 23:21:22 12° NNW visible
04 Apr ? 22:50:33 10° NNW 22:51:45 17° NNW 22:51:45 17° NNW visible
